Regional Weather Roundup
Issued by NWS Mobile, AL

Home | Current Version | Previous Version | Text Only | Print | Product List | Glossary On
Versions: 1 2 3 4 5 6 7 8 9 10 11 12 13 14 15 16 17 18 19 20 21 22 23 24 25 26 27 28 29 30 31 32 33 34 35 36 37 38 39 40 41 42 43 44 45 46 47 48 49 50
000
ASUS44 KMOB 201612
RWRMOB
REGIONAL WEATHER ROUNDUP
NATIONAL WEATHER SERVICE MOBILE AL
1100 AM CDT TUE AUG 20 2019

NOTE: "FAIR" INDICATES FEW OR NO CLOUDS BELOW 12,000 FEET WITH NO
      SIGNIFICANT WEATHER AND/OR OBSTRUCTIONS TO VISIBILITY.

  * THESE STATIONS ARE PART OF THE UNIVERSITY OF SOUTH ALABAMA
    MESONET AND ARE NOT UNDER NWS OR FAA QUALITY CONTROL.

ALZ061>064-201700-
COASTAL ALABAMA

CITY           SKY/WX    TMP DP  RH WIND       PRES   REMARKS
MOBILE REG APT LGT RAIN  79  75  87 SE10      30.09R FOG
BROOKLEY FIELD PTSUNNY   86  78  77 SE8       30.10S HX  98
USA CAMPUS*    NOT AVBL
DOG RIVER*     NOT AVBL


CITY           SKY/WX    TMP DP  RH WIND       PRES   REMARKS
GULF SHORES    FAIR      83  75  76 SE8       30.09R

$$

ALZ051>060-201700-
INTERIOR SOUTHWEST AND SOUTH CENTRAL ALABAMA

CITY           SKY/WX    TMP DP  RH WIND       PRES   REMARKS
GREENVILLE     PTSUNNY   86  71  60 S7        30.11R
EVERGREEN      FAIR      85  74  69 E6        30.11R
ATMORE*        NOT AVBL
ANDALUSIA/OPP  FAIR      87  74  64 SE7       30.10S HX  95
ANDALUSIA*     NOT AVBL
FLORALA APT    PTSUNNY   84  72  67 S7        30.12R
FLORALA*       NOT AVBL

$$

FLZ001>006-201700-
WESTERN FLORIDA PANHANDLE

CITY           SKY/WX    TMP DP  RH WIND       PRES   REMARKS
PENSACOLA      RAIN      77  77 100 S8        30.08F FOG
NAS PENSACOLA  LGT RAIN  76  76 100 SE6       30.09S
MILTON         LGT RAIN  80  76  87 S14       30.10R
WHTNG S FIELD  HVY RAIN  77  75  93 S13       30.10R FOG


CITY           SKY/WX    TMP DP  RH WIND       PRES   REMARKS
JAY*           NOT AVBL
DUKE FIELD     FAIR      83  74  73 SE7       30.09S
CRESTVIEW      FAIR      85  72  65 SE8       30.11S
VALPARAISO     PTSUNNY   85  76  73 SE10      30.09S HX  95
DESTIN         FAIR      86  74  67 VRB6      30.09S

$$

MSZ076-079-201700-
INTERIOR SOUTHEAST MISSISSIPPI

CITY           SKY/WX    TMP DP  RH WIND       PRES   REMARKS
LEAKESVILLE*   NOT AVBL
AGRICOLA*      NOT AVBL

$$

MARINE OBSERVATIONS

STATION/POSITION TIME  TEMP    WIND        PRES    WAVE
                       AIR SEA DIR/SP/G            HT/PER
                 (UTC) (F)     (DEG/KT/KT) (MB)    (FT/S)
PETIT BOIS ISLND 1530          150/  8/ 10 1018.5R
GRAND BAY        1445   77     100/  5     1019.0S
KATRINA CUT      1530   77     220/ 12     1018.3F
CEDAR POINT      1530   78     180/ 11     1018.6R
E DAUPHIN ISLAND 1500   79     200/  6/  8 1018.4F
MIDDLE BAY LIGHT 1530   79     150/  9     1018.6
USCG MOBILE BAY  1524   82 87  170/  5/  7 1018.8
STATE DOCKS      1518   80 87              1018.6
MEAHER PARK      1530   78     160/  7     1019.3R
WEEKS BAY        1445   76                 1018.0F
FORT MORGAN      1524   78     240/ 10/ 12 1018.7
12 S ORANGE BCH  1550   79 85   70/ 10/ 12 1019.2R   2/ 7
PENSACOLA BAY    1524   76 87  180/  5/  8 1019.4
64 S DAUPHIN ISL 1550   82 83  150/  8/ 10 1019.1R   2/ 6

$$

SELECTED LOCATIONS ACROSS THE REGION

CITY           SKY/WX    TMP DP  RH WIND       PRES   REMARKS
NEW ORLEANS    FAIR      87  76  69 VRB6      30.06S HX  97
GULFPORT       CLOUDY    81  74  79 NE7       30.06S
PASCAGOULA AP  CLOUDY    83  74  74 SE6       30.07S
PASCAGOULA*    NOT AVBL
HATTIESBURG    CLOUDY    77  72  84 VRB3      30.10R
LAUREL         CLOUDY    75  72  90 E5        30.12R
MERIDIAN       FAIR      85  72  65 CALM      30.10R
JACKSON        FAIR      83  70  64 SE5       30.09R
MONTGOMERY     FAIR      87  72  60 VRB5      30.11R
TROY           FAIR      84  76  76 VRB3      30.12R
ASHFORD*       NOT AVBL
DOTHAN         FAIR      86  72  62 S6        30.14S
PANAMA CITY    PTSUNNY   83  76  79 E7        30.09F

$$




USA.gov is the U.S. government's official web portal to all federal, state and local government web resources and services.